User: anonymous   Login
Location: Anjeux
(47.8815°N, 6.2076°E)
Time: 17:23:34
(UTC+00:00)
Language:

STRAND 1 - Orbit

View from above orbital plane
View from above orbital plane
View from above satellite
View from above satellite

Ground track
Ground track

The orbit data is extracted from the following two-line orbital elements,

1 39090U 13009E   21336.84431065  .00000201  00000-0  85236-4 0  9991
2 39090  98.4129 174.9757 0009865 132.6339 227.5680 14.35209494459190
Epoch (UTC): 02 December 2021 20:15:48
Eccentricity: 0.0009865
inclination: 98.4129°
perigee height: 767 km
apogee height: 781 km
right ascension of ascending node: 174.9757°
argument of perigee: 132.6339°
revolutions per day: 14.35209494
mean anomaly at epoch: 227.5680°
orbit number at epoch: 45919

The dashed part of the orbit path shows where the satellite is in the earth's shadow,  

DLR